CYGFM02 (41886 NORAD) Tracking and Keplerian Element Data

This shows tracking and keplerian element data for the satellite.

Feedback or suggestion? Click here.




ElementValue
Catalog41886
NameCYGFM02
Epoch Orbit18269
Epoch Day93.86742861
Epoch Year2020
RAAN164.7462
Inclination34.958
Eccentricity0.0014279
Argument of Perigee95.9969
Mean Anonmoly264.237
Mean Motion15.15093412
Decay Rate3.14E-06
L11 41886U 16078C 20093.86742861 .00000314 00000-0 18120-4 0 9999
L22 41886 34.9580 164.7462 0014279 95.9969 264.2370 15.15093412182699

Live tracking and technical data element details for CYGFM02 (NORAD 41886). CYGFM02 can be tracked NOW for your location showing map with azimuth and elevation plus other details from your city location.

Track the satellite on the map from your city or location and see movement details for azimuth, elevation, latitude, longitude, range, height, and movement on the map or in text.







IsCatalogInMostPopularTable: catalog: 41886, numindb: 436
Update: records affected: 1



GetName: 41886 CYGFM02

Hit Count: updated at: Thu, 09 Apr 2020 16:40:53 GMT